Location: *
(50.5492°N, 7.7469°E)
Time: 05:27:50
(UTC+00:00)

Cosmos 2263 Rocket - Pass Details

Date: 21 October 2019
Orbit: 825 x 847 km, 71.0° (Epoch: 21 November)

Event Time Altitude Azimuth Distance (km) Brightness Sun altitude
Rises 17:12:37 0° 258° (WSW) 3,397 7.8 -8.1°
Reaches altitude 10° 17:15:41 10° 274° (W) 2,461 6.2 -8.6°
Maximum altitude 17:19:55 21° 323° (NW) 1,791 4.3 -9.3°
Drops below altitude 10° 17:24:10 10° 12° (NNE) 2,458 4.5 -10.0°
Sets 17:27:14 0° 28° (NNE) 3,391 5.0 -10.4°
